Location: Brno
(49.2000°N, 16.6330°E)
Time: 04:12:27
(UTC+02:00)

Vanguard 3 - Pass Details

Date: 08 August 2021
Orbit: 510 x 3260 km, 33.3° (Epoch: 16 September)

Event Time Altitude Azimuth Distance (km) Brightness Sun altitude
Rises 22:22:56 0° 271° (W) 6,260 12.3 -16.3°
Reaches altitude 10° 22:27:41 10° 261° (W) 5,583 11.8 -16.8°
Maximum altitude 22:40:59 27° 213° (SSW) 4,832 10.8 -18.1°
Enters shadow 22:51:55 16° 174° (S) 5,613 10.9 -19.1°
Drops below altitude 10° 22:55:31 10° 165° (SSE) 6,063 - -19.4°
Sets 23:01:06 0° 155° (SSE) 6,869 - -19.9°
